This is the latest recevied weather packets stored in our database for station/object KD8JAM. If no packets are shown the sender has not sent any weather packets the latest 10 day(s).
| Time | Temp. | Humidity | Pressure | Rain* | Wind** | Luminosity | Snow |
|---|---|---|---|---|---|---|---|
| 1777735898 | 8.33° C | 49% | 1017.2 hPa | 0 mm | - | 792 W/m² | - |
| 1777735595 | 8.89° C | 50% | 1017.5 hPa | 0 mm | - | 802 W/m² | - |
| 1777735292 | 8.33° C | 51% | 1017.5 hPa | 0 mm | - | 774 W/m² | - |
| 1777734990 | 8.33° C | 50% | 1017.3 hPa | 0 mm | - | 753 W/m² | - |
| 1777734687 | 8.33° C | 51% | 1017.6 hPa | 0 mm | - | 738 W/m² | - |
| 1777734384 | 8.33° C | 49% | 1017.5 hPa | 0 mm | - | 736 W/m² | - |
| 1777734080 | 8.33° C | 49% | 1017.6 hPa | 0 mm | - | 707 W/m² | - |
| 1777733777 | 8.89° C | 50% | 1017.6 hPa | 0 mm | - | 694 W/m² | - |
| 1777733474 | 8.33° C | 49% | 1017.6 hPa | 0 mm | - | 669 W/m² | - |
| 1777733170 | 8.33° C | 51% | 1017.7 hPa | 0 mm | - | 656 W/m² | - |
| 1777732867 | 7.78° C | 51% | 1017.7 hPa | 0 mm | - | 647 W/m² | - |
| 1777732563 | 7.78° C | 50% | 1017.7 hPa | 0 mm | - | 652 W/m² | - |
| 1777732261 | 8.33° C | 51% | 1017.6 hPa | 0 mm | - | 640 W/m² | - |
| 1777731958 | 7.78° C | 51% | 1018 hPa | 0 mm | - | 599 W/m² | - |
| 1777731655 | 7.78° C | 51% | 1017.9 hPa | 0 mm | - | 567 W/m² | - |
| 1777731352 | 8.33° C | 51% | 1017.9 hPa | 0 mm | - | 465 W/m² | - |
| 1777731050 | 8.33° C | 54% | 1017.8 hPa | 0 mm | - | 486 W/m² | - |
| 1777730748 | 7.78° C | 51% | 1018 hPa | 0 mm | - | 485 W/m² | - |
| 1777730444 | 7.22° C | 52% | 1017.8 hPa | 0 mm | - | 465 W/m² | - |
| 1777730140 | 7.78° C | 53% | 1018.2 hPa | 0 mm | - | 443 W/m² | - |
| 1777729837 | 7.78° C | 52% | 1017.9 hPa | 0 mm | - | 427 W/m² | - |
| 1777729533 | 7.22° C | 52% | 1018.1 hPa | 0 mm | - | 427 W/m² | - |
| 1777729230 | 7.22° C | 53% | 1018.2 hPa | 0 mm | - | 390 W/m² | - |
| 1777728927 | 7.22° C | 53% | 1018.1 hPa | 0 mm | - | 369 W/m² | - |
| 1777728624 | 6.67° C | 53% | 1018.3 hPa | 0 mm | - | 348 W/m² | - |
* Rain latest hour (hover to see other rain measurements)
** Current wind speed in m/s (hover to see current wind gust speed)